RH
72 70 69 68 69 70 71 72 74 72 71 70 69 69 70 76 80 67 56 30 56 63 65 50 46 40 32 31 30 28 27 27 20 21 15 17 17 17 16 16 16 14 19 36 67
72 71 70 71 71 73 72 73 77 73 70 70 70 70 73 79 76 67 48 58 64 66 51 43 44 40 35 34 32 27 27 21 22 19 19 19 19 18 17 18 17 16 26 60 71
73 73 71 71 71 72 74 78 77 72 70 70 69 70 75 73 61 17 72 70 73 65 34 38 37 34 36 39 38 33 27 26 23 20 20 19 20 19 19 19 19 18 17 50 65
73 73 75 71 68 70 77 81 76 72 71 70 70 69 74 74 11 36 54 66 68 60 48 32 39 39 36 38 38 38 36 25 25 24 23 24 23 22 21 19 17 16 20 34 54
71 74 75 74 72 71 77 80 77 74 72 70 69 69 64 80 62 27 48 41 54 60 39 30 32 30 30 27 32 41 33 32 28 26 26 26 26 25 23 19 19 20 22 21 36
72 73 75 75 74 74 75 79 81 78 73 69 68 68 77 86 35 32 33 32 23 48 36 30 26 24 24 22 21 20 24 22 23 26 28 28 27 27 24 23 23 22 18 17 21
74 75 75 74 73 73 73 78 82 80 74 70 68 64 76 72 39 34 30 31 32 29 43 38 28 24 25 26 24 25 27 24 22 23 25 28 29 29 21 22 22 20 19 19 18
72 72 74 75 76 77 78 79 82 78 76 71 67 68 76 42 40 46 44 47 42 40 31 24 22 35 34 27 24 33 36 33 27 27 25 22 26 24 21 22 22 21 20 20 20
71 71 74 78 80 81 83 82 78 76 74 72 74 76 70 46 52 43 45 46 33 38 29 17 24 25 27 31 34 38 36 44 34 29 25 26 23 22 23 24 23 22 21 20 21
69 69 70 75 78 80 83 80 68 71 65 64 58 78 58 30 38 39 44 46 35 33 27 27 28 32 31 28 30 32 44 39 34 29 31 30 31 26 23 23 23 21 20 19 19
69 70 70 71 71 76 81 72 58 59 68 83 75 68 56 48 43 42 40 42 34 26 27 30 37 37 31 31 26 33 32 32 37 31 31 32 29 27 24 24 24 22 20 18 21
70 71 71 71 71 73 83 80 69 92 96 67 64 61 52 47 64 46 36 43 36 38 28 33 48 32 25 34 32 33 34 36 36 31 31 28 28 21 19 18 16 16 16 18 23
71 71 71 73 72 79 84 76 66 78 99 65 52 66 58 52 60 50 43 36 35 36 36 42 24 25 25 29 37 37 39 38 36 28 21 23 18 12 15 16 16 18 20 25 27
71 71 72 77 80 88 81 66 72 81 94 52 70 58 52 50 66 38 28 27 36 38 38 35 25 29 32 28 29 33 32 33 35 32 31 22 18 18 17 18 20 20 23 27 41
70 71 72 76 92 90 75 74 76 87 85 35 54 36 43 44 36 47 35 35 32 41 40 45 46 37 33 28 30 30 31 30 30 28 25 24 29 25 24 21 21 23 37 48 47
71 72 72 89 94 83 75 82 92 92 80 60 59 53 53 46 40 34 35 27 27 31 30 36 27 35 35 28 25 24 28 31 34 32 45 33 30 28 23 23 30 46 49 51 50
72 74 76 86 88 84 84 91 84 86 48 62 82 95 69 60 51 40 38 37 32 40 38 28 28 27 27 33 27 31 39 49 64 54 47 34 33 27 28 39 50 51 47 49 49
74 78 83 78 85 82 90 94 89 92 64 45 69 92 88 67 60 59 38 44 73 51 27 27 26 22 25 30 34 35 37 41 47 60 44 43 40 30 36 53 52 49 48 50 51
80 88 86 82 85 86 91 91 79 92 71 59 47 81 76 75 68 73 80 83 78 80 47 41 34 23 26 21 26 37 40 35 44 48 51 39 42 36 59 59 57 54 55 54 54
94 90 80 86 87 89 93 80 72 68 52 52 60 59 80 67 75 90 88 93 90 65 74 53 45 36 33 23 25 31 32 43 48 53 49 40 42 35 51 45 54 49 55 54 55
90 85 71 87 87 90 95 79 68 50 49 56 62 71 72 74 74 91 83 74 68 77 67 73 55 44 35 35 32 31 31 38 39 46 38 43 34 36 46 44 48 56 62 60 63
90 91 67 85 94 92 88 68 68 54 54 58 59 69 68 78 74 70 80 75 66 76 88 82 79 65 45 37 46 33 35 32 39 48 47 40 34 46 50 48 58 61 66 64 64
96 82 74 88 95 88 69 72 74 72 66 70 65 60 56 71 76 74 72 68 76 74 86 76 84 73 59 63 47 57 53 41 48 47 41 49 40 50 59 61 63 64 62 72 66
96 97 75 93 87 88 87 74 78 66 66 66 69 65 75 66 70 75 75 70 74 74 84 72 80 82 59 69 71 63 55 55 52 54 46 43 40 54 64 70 73 74 65 72 72
95 93 80 94 90 79 80 82 84 81 63 63 66 66 79 85 73 74 75 66 61 77 91 87 92 82 74 75 75 64 56 55 52 48 50 48 51 44 67 75 81 74 74 77 79
99 95 84 88 80 82 72 68 85 66 64 77 64 64 69 84 87 86 71 69 74 71 79 94 92 92 82 71 66 56 51 60 59 54 56 53 51 71 68 76 78 84 83 86 86
90 84 84 76 76 80 78 72 68 62 54 57 66 69 71 70 78 75 70 66 62 71 83 97 88 81 66 70 60 52 52 54 63 76 75 63 72 70 77 91 92 89 86 89 86
Wind_Speed
11 12 12 13 14 15 15 16 15 18 19 20 20 21 21 22 25 10 10 12 10 10 8 10 5 4 4 5 4 4 6 10 14 10 7 4 3 1 1 2 4 0 2 4 2
14 14 14 14 14 14 15 16 16 18 19 19 21 21 21 21 18 14 13 16 14 7 9 15 11 11 5 7 6 7 8 13 6 9 5 2 3 1 2 4 3 4 1 2 5
14 14 13 14 14 15 16 15 16 19 19 20 21 21 20 18 6 6 6 8 6 11 4 5 8 9 7 4 8 7 15 7 7 11 5 8 7 4 5 9 8 7 4 2 5
15 15 15 15 16 16 15 14 17 19 19 20 20 20 20 5 8 3 11 11 1 3 3 5 10 9 8 11 6 7 8 11 4 7 7 9 5 8 10 11 12 10 6 6 9
15 15 16 16 16 17 16 16 18 19 19 19 19 18 10 5 13 6 15 10 2 5 7 5 8 9 11 7 6 9 8 7 11 12 10 9 15 17 11 12 15 10 9 12 12
14 16 16 16 16 17 18 18 18 20 20 20 18 16 7 19 7 9 3 7 4 4 6 7 7 8 7 7 13 4 11 15 13 16 9 14 18 7 8 15 14 10 14 12 10
14 15 16 17 17 18 19 18 18 20 25 22 17 11 17 29 9 8 11 8 7 5 4 6 5 5 5 3 7 4 8 9 11 8 9 6 16 15 18 16 16 16 13 12 11
16 16 15 16 17 19 20 19 20 24 27 24 21 10 16 6 15 18 17 14 13 16 13 13 9 8 5 4 3 4 4 9 4 15 9 10 21 4 1 9 9 10 7 7 6
15 15 16 16 17 19 18 18 22 29 26 21 7 10 13 6 8 12 20 11 4 12 8 8 3 4 2 10 7 5 8 5 4 11 7 17 16 1 5 2 4 4 5 7 10
15 16 17 17 17 17 18 21 24 20 2 4 4 5 8 5 5 4 6 15 6 10 7 7 4 7 8 11 16 11 7 8 9 4 7 12 16 10 12 5 6 10 11 11 12
15 15 16 17 18 17 13 6 7 5 6 11 16 13 16 8 7 1 5 9 5 5 10 12 10 19 20 17 10 5 12 15 3 2 3 13 17 11 10 13 14 15 13 13 14
14 16 17 17 19 14 2 4 8 8 17 19 23 27 26 20 12 10 4 9 9 7 10 8 22 15 11 10 13 15 17 14 5 7 7 16 21 15 13 17 19 16 14 14 9
15 16 18 18 16 4 2 3 7 10 9 22 27 18 18 17 18 24 5 3 7 11 17 12 6 17 11 10 12 14 18 13 13 4 7 8 19 14 5 11 11 11 11 6 6
15 15 17 18 3 2 5 5 6 3 7 12 4 7 11 9 11 20 14 10 5 13 14 12 10 5 11 17 13 16 10 12 9 6 8 2 9 5 10 7 5 6 3 3 5
15 16 15 12 2 3 4 7 7 0 7 7 3 0 4 11 3 5 7 7 12 8 8 9 7 14 11 10 15 8 9 13 11 9 5 8 7 2 3 6 1 1 5 3 7
15 16 15 3 1 5 4 6 2 0 7 11 8 11 3 10 3 5 5 3 4 6 2 4 1 7 8 6 17 8 5 3 3 4 7 10 9 3 7 5 2 2 2 4 7
15 15 11 2 3 4 4 4 2 4 14 11 12 8 8 5 3 2 11 6 6 9 11 4 4 1 3 7 6 6 7 3 4 5 6 9 9 6 4 1 3 2 6 6 7
15 13 4 2 4 3 2 2 4 5 10 15 13 11 9 13 8 7 9 5 14 4 5 12 8 16 10 6 9 11 11 5 6 5 1 5 7 3 2 8 4 2 4 7 9
7 3 3 2 3 1 4 3 3 6 11 16 14 9 11 14 6 4 9 5 7 10 2 5 2 4 4 11 9 5 9 1 2 2 1 5 4 5 6 4 3 2 2 8 12
2 2 3 7 1 3 5 4 3 3 12 11 9 8 13 16 11 6 6 5 6 10 2 2 1 1 2 6 4 5 8 6 2 5 6 5 6 6 10 6 4 2 5 9 11
3 3 2 5 2 4 3 4 5 8 10 5 8 7 10 9 9 7 9 7 9 11 5 4 2 1 1 1 7 5 4 2 3 4 3 3 2 3 5 3 2 4 2 7 12
1 3 3 2 4 1 2 4 7 5 3 4 4 5 5 8 7 8 8 6 10 7 4 3 2 2 3 2 0 3 7 9 5 5 4 6 6 2 4 6 3 4 3 5 11
1 1 2 3 3 2 4 4 4 5 5 6 4 6 6 4 4 5 6 4 8 6 6 4 1 3 4 2 3 2 1 3 4 1 9 6 2 3 6 9 5 7 7 2 10
2 4 4 2 2 2 5 4 7 4 4 4 4 4 6 4 1 4 5 3 7 6 12 1 1 3 0 3 2 2 1 1 3 4 4 7 5 3 8 10 9 10 7 5 9
1 0 1 2 1 3 3 3 8 6 4 6 1 8 7 5 6 3 3 7 6 6 5 4 2 2 7 4 4 5 5 2 3 1 5 2 2 3 6 7 8 10 12 13 14
4 3 1 2 3 3 2 2 2 6 3 4 5 13 8 3 4 9 10 5 3 5 4 4 1 1 3 5 4 4 6 6 7 4 7 9 7 7 5 8 10 11 12 12 13
1 0 2 2 2 0 2 3 4 7 4 5 5 13 10 3 10 15 12 11 9 8 3 3 3 3 1 2 6 5 5 8 3 2 2 4 3 7 7 9 11 11 12 13 15
Wind_Direction
347 344 347 345 345 341 339 340 340 339 338 338 339 337 333 329 318 316 262 232 198 255 183 135 156 174 136 156 144 140 224 223 225 221 229 201 186 160 34 272 338 214 341 326 92
351 344 338 341 338 336 335 335 334 333 334 336 335 335 332 327 316 273 250 268 234 242 172 167 171 160 178 178 179 198 223 222 220 222 241 188 202 175 301 336 288 292 279 37 160
351 348 338 336 336 334 332 329 326 328 330 331 332 331 332 329 313 253 343 333 265 206 260 205 151 171 183 168 182 197 237 213 217 227 225 255 256 217 253 277 254 277 328 218 204
346 339 338 338 333 330 325 321 319 322 324 325 328 330 327 309 274 150 13 12 83 193 274 201 168 185 193 201 196 228 230 230 222 225 224 240 249 239 223 252 268 255 274 254 224
341 341 337 335 328 327 321 314 311 315 316 317 320 328 343 290 253 299 340 1 215 168 224 208 193 188 197 196 198 238 231 207 231 249 245 252 249 254 249 245 265 260 267 249 236
336 334 333 331 326 324 321 313 310 307 306 303 308 315 290 265 256 276 299 354 351 228 206 212 215 226 225 208 201 202 224 251 248 247 249 257 256 236 223 238 263 255 263 257 246
347 344 341 341 335 327 318 311 305 300 294 295 293 295 262 244 273 271 274 286 287 308 271 222 251 216 192 239 215 233 256 255 236 236 238 231 259 248 248 235 235 252 259 272 261
343 341 341 339 335 331 319 312 304 295 286 291 285 260 256 234 252 256 257 263 243 244 237 277 288 246 241 284 277 212 203 246 192 204 218 203 262 215 222 200 232 253 271 274 262
334 331 332 334 334 333 329 318 304 286 292 289 241 199 262 291 244 250 228 230 230 204 201 246 194 230 182 224 254 216 235 208 240 191 194 209 268 258 109 60 262 261 265 277 287
336 335 338 336 332 331 329 316 293 297 342 115 195 202 257 225 263 219 151 194 220 143 143 172 225 211 210 196 223 232 232 241 236 170 222 237 249 266 300 323 296 291 284 281 274
341 341 344 343 334 331 329 319 4 331 17 297 293 266 300 342 319 244 161 153 204 170 156 182 201 214 204 210 229 258 239 250 214 226 281 255 267 273 276 285 269 263 260 262 259
340 339 339 335 330 326 37 26 7 348 295 269 260 260 254 262 287 277 219 192 177 165 139 156 222 220 195 198 214 232 248 246 259 270 266 276 278 285 260 256 256 257 256 254 263
344 339 338 335 323 54 344 298 22 6 282 283 249 237 228 211 227 253 204 231 187 172 187 189 179 207 196 190 203 220 233 242 247 260 263 280 282 260 247 243 253 243 255 264 284
350 342 342 341 43 330 327 360 353 72 284 281 234 250 204 171 226 229 204 197 208 187 173 219 219 141 201 223 201 233 212 223 227 246 256 224 289 273 285 246 227 245 291 342 353
347 342 343 354 276 323 281 309 318 112 279 347 331 339 177 188 318 176 187 178 198 167 172 204 171 199 198 204 186 230 183 197 205 220 252 226 271 299 191 238 241 138 95 27 354
345 339 343 6 323 252 292 306 148 7 261 342 329 342 187 233 287 127 158 157 160 154 81 178 125 162 203 168 173 155 130 110 99 157 241 208 222 199 216 228 135 102 43 2 353
335 330 329 232 255 349 325 10 35 253 338 347 328 311 309 348 55 134 160 150 139 180 202 162 207 158 172 104 170 157 158 180 187 204 243 199 216 265 237 90 132 23 6 349 339
333 327 339 263 335 297 6 345 8 345 352 315 349 346 20 10 10 19 135 95 34 359 142 202 233 203 196 185 170 186 186 189 204 203 188 137 230 228 166 128 111 72 339 336 339
355 332 14 319 324 323 58 20 2 360 330 326 333 4 7 357 357 67 71 55 37 15 59 155 258 159 175 200 174 179 212 211 36 95 281 218 226 223 160 158 147 140 347 357 351
11 10 333 323 72 55 73 295 338 289 320 327 345 19 7 2 17 21 47 17 3 3 342 354 140 146 120 140 174 188 154 161 205 214 229 228 236 226 205 201 178 324 351 357 345
36 44 280 316 68 46 83 283 294 302 326 321 325 323 354 2 346 15 15 70 13 344 355 343 338 279 13 81 145 177 218 153 197 227 267 297 229 225 177 217 242 251 308 355 344
39 48 314 356 36 87 2 296 298 300 329 311 293 288 350 331 345 17 18 31 10 336 348 359 331 233 218 351 197 170 187 197 218 189 230 266 276 101 6 293 280 284 294 355 352
37 308 339 69 53 359 330 294 279 313 330 325 317 2 317 311 334 355 347 352 7 12 3 346 21 195 146 107 46 50 251 209 126 141 223 241 209 110 42 44 24 323 313 355 8
44 27 331 50 165 2 336 309 317 291 282 292 322 0 343 322 283 311 335 324 329 11 343 271 8 313 237 75 21 246 198 285 199 189 191 239 268 20 30 15 16 13 44 34 14
26 311 180 324 199 300 297 279 308 351 322 350 86 11 339 307 318 352 331 333 330 9 0 356 160 281 291 257 224 248 224 216 232 192 216 154 230 332 20 2 14 13 13 12 5
135 143 176 290 285 323 288 269 339 325 294 311 360 334 329 276 301 309 317 321 281 327 346 2 11 223 253 247 263 252 246 236 258 260 260 272 286 20 22 44 24 24 16 12 359
131 314 111 287 294 317 246 291 335 352 289 267 340 324 317 287 308 281 262 257 257 287 317 311 303 331 77 218 291 241 243 207 157 105 335 282 19 22 36 50 31 22 20 12 6